Voltar ao catálogo

QIANFAN-18

AtivoComunicaçõesPO
NORAD 60396·PAYLOAD·🇨🇳 China

Lançado Aug 6, 2024 de Taiyuan Satellite Launch Center

Loading…

Próximas Passagens (próximas 24 horas)

TLE

AtualizadoSource: Space-Track

Época: Sep 14, 2026, 23:14 UTC

1 60396U 24140T   26257.96819905  .00000005  00000-0 -10704-4 0  9996
2 60396  88.9670 270.3060 0016340 108.3138 251.9792 13.51020926104829

Acompanhe QIANFAN-18 em tempo real com AllMySat

Download on the App Store